Regional Weather Roundup
Issued by NWS Kansas City/Pleasant Hill, MO

Home | Current Version | Previous Version | Graphics & Text | Print | Product List | Glossary Off
Versions: 1 2 3 4 5 6 7 8 9 10 11 12 13 14 15 16 17 18 19 20 21 22 23 24 25 26 27 28 29 30 31 32 33 34 35 36 37 38 39 40 41 42 43 44 45 46 47 48 49 50

000
ASUS43 KEAX 072010
RWREAX

WEATHER ROUNDUP FOR EASTERN KANSAS AND NORTHWEST MISSOURI
NATIONAL WEATHER SERVICE KANSAS CITY/PLEASANT HILL MO
200 PM CST SUN FEB 07 2016

KSZ040-057-103>105-MOZ028-029-037-043-072100-
...KANSAS CITY METROPOLITAN AREA...

CITY           SKY/WX    TMP DP  RH WIND       PRES   REMARKS
K.C. INTL      CLOUDY    50  27  40 NW15G28   30.01F
K.C. DOWNTOWN  PTSUNNY   52  24  33 NW18G26   30.00F
LEES SUMMIT    CLOUDY    50  22  33 NW20G28   30.00F
OLATHE - IXD   CLOUDY    51  24  34 NW20G29   30.03F
OLATHE - OJC   CLOUDY    51  19  28 NW21G33   30.02F
LAWRENCE       CLOUDY    53  25  33 NW22G31   30.04F

$$

MOZ001>008-011>017-020>025-030>033-038>040-044>046-053-054-072100-
...NORTHERN AND CENTRAL MISSOURI...

CITY           SKY/WX    TMP DP  RH WIND       PRES   REMARKS
ST. JOSEPH     CLOUDY    50  26  39 NW28G36   30.00F
MOSBY          CLEAR     50  25  37 W21G26    30.00F
WARRENSBURG    MOSUNNY   50  21  32 W16G22    30.00S
WHITEMAN AFB   PTSUNNY   50  21  32 NW17G24   29.97F
CLINTON          N/A     52  30  43 W10G20    30.01F
SEDALIA        PTSUNNY   51  29  42 W20G25    29.99S
WARSAW         NOT AVBL
CHILLICOTHE      N/A     53  27  36 W13G26    29.94F
KIRKSVILLE     LGT RAIN  50  21  32 NW16G28   29.89F

$$

MOZ041-047>049-056>058-063>065-088>090-097-072100-
...EASTERN AND SOUTHERN MISSOURI...

CITY           SKY/WX    TMP DP  RH WIND       PRES   REMARKS
ST. LOUIS INTL CLOUDY    53  28  38 W14       29.89F
SPIRIT OF STL  CLOUDY    52  30  43 W16       29.89F
COLUMBIA       SUNNY     52  29  41 W22G29    29.93F
JEFFERSON CITY MOSUNNY   52  29  41 NW17      29.94F
ROLLA          MOSUNNY   50  29  44 W16G24    29.92F
OSAGE BEACH    SUNNY     52  28  40 W10G17    29.98F
SPRINGFIELD    MOSUNNY   50  28  42 W17G24    30.02F
BRANSON        PTSUNNY   52  28  40 NW14G25   30.03S
JOPLIN         MOSUNNY   50  29  44 W10G18    30.08F
WEST PLAINS    CLOUDY    52  25  35 W14       29.98F

$$

IAZ060-094-KSZ022-034>040-054-083-096-NEZ052-066-093-072100-
...KANSAS...SOUTHEAST NEBRASKA AND IOWA...

CITY           SKY/WX    TMP DP  RH WIND       PRES   REMARKS
TOPEKA         MOSUNNY   51  22  31 NW26G36   30.06F
MANHATTAN      PTSUNNY   52  22  30 NW15G31   30.10F
EMPORIA        SUNNY     53  18  25 NW26G40   30.08F
CHANUTE        CLOUDY    55  19  24 NW20G30   30.09F
WICHITA        MOSUNNY   57  21  24 N17G30    30.14F
OMAHA          MOSUNNY   44  24  45 NW22G39   29.94F
LINCOLN        MOSUNNY   44  24  45 W20G28    30.00F
FALLS CITY     SUNNY     50  23  34 W28G35    30.01F
LAMONI         CLOUDY    43  28  55 NW20G35   29.92F WCI  34
DES MOINES     PTSUNNY   42  26  53 W22G33    29.86F WCI  33

$$




USA.gov is the U.S. government's official web portal to all federal, state and local government web resources and services.